• In Hungary
  • List of Countries
  • For 7 days
  • Water Temperature
  • Satellite Maps
  • Weather Map
  • News
  • Weather Widgets
  • user-avatar
    Login

    Hourly Weather Roschino

    Today, 16 November, Friday

    Time Temperature Precipitation Wind Pressure Humidity
    00:00 -5°C° 0 mm 2 mps 769 mmHg 32%
    01:00 -6°C° 0 mm 2 mps 769 mmHg 32%
    02:00 -6°C° 0 mm 2 mps 769 mmHg 32%
    03:00 -6°C° 0 mm 2 mps 769 mmHg 33%
    04:00 -4°C° 0 mm 1 mps 770 mmHg 32%
    05:00 -4°C° 0 mm 1 mps 770 mmHg 32%
    06:00 -4°C° 0 mm 1 mps 770 mmHg 33%
    07:00 -6°C° 0 mm 2 mps 770 mmHg 33%
    08:00 -6°C° 0 mm 2 mps 770 mmHg 31%
    09:00 -5°C° 0 mm 2 mps 770 mmHg 30%
    10:00 -4°C° 0 mm 2 mps 770 mmHg 28%
    11:00 -3°C° 0 mm 2 mps 770 mmHg 26%
    12:00 -2°C° 0 mm 2 mps 770 mmHg 24%
    13:00 -1°C° 0 mm 2 mps 770 mmHg 22%
    14:00 -2°C° 0 mm 2 mps 770 mmHg 23%
    15:00 -2°C° 0 mm 2 mps 769 mmHg 25%
    16:00 -3°C° 0 mm 2 mps 769 mmHg 27%
    17:00 -3°C° 0 mm 2 mps 769 mmHg 27%
    18:00 -2°C° 0 mm 1 mps 769 mmHg 28%
    19:00 -2°C° 0 mm 1 mps 769 mmHg 29%
    20:00 -3°C° 0 mm 1 mps 769 mmHg 28%
    21:00 -3°C° 0 mm 1 mps 768 mmHg 28%
    22:00 -3°C° 0 mm 1 mps 768 mmHg 28%
    23:00 -3°C° 0 mm 1 mps 768 mmHg 28%

    Tomorrow, 17 November, Saturday

    Time Temperature Precipitation Wind Pressure Humidity
    00:00 -3°C° 0 mm 1 mps 767 mmHg 28%
    01:00 -3°C° 0 mm 1 mps 767 mmHg 28%
    02:00 -3°C° 0 mm 1 mps 767 mmHg 28%
    03:00 -6°C° 0 mm 2 mps 766 mmHg 28%
    04:00 -6°C° 0 mm 2 mps 766 mmHg 28%
    05:00 -6°C° 0 mm 2 mps 766 mmHg 28%
    06:00 -6°C° 0 mm 2 mps 765 mmHg 29%
    07:00 -6°C° 0 mm 2 mps 765 mmHg 29%
    08:00 -6°C° 0 mm 3 mps 764 mmHg 27%
    09:00 -5°C° 0 mm 3 mps 764 mmHg 25%
    10:00 -5°C° 0 mm 3 mps 764 mmHg 23%
    11:00 -4°C° 0 mm 4 mps 763 mmHg 22%
    12:00 -3°C° 0 mm 4 mps 762 mmHg 21%
    13:00 -2°C° 0 mm 4 mps 762 mmHg 20%
    14:00 -2°C° 0 mm 4 mps 761 mmHg 22%
    15:00 -1°C° 0 mm 3 mps 761 mmHg 24%
    16:00 -2°C° 0 mm 3 mps 761 mmHg 26%
    17:00 -2°C° 0 mm 3 mps 760 mmHg 27%
    18:00 -4°C° 0 mm 3 mps 760 mmHg 28%
    19:00 -4°C° 0 mm 3 mps 759 mmHg 30%
    20:00 -4°C° 0 mm 3 mps 759 mmHg 31%
    21:00 -4°C° 0 mm 3 mps 759 mmHg 32%
    22:00 -4°C° 0 mm 3 mps 758 mmHg 33%
    23:00 -3°C° 0 mm 2 mps 758 mmHg 35%

    Day after tomorrow, 18 November, Sunday

    Time Temperature Precipitation Wind Pressure Humidity
    00:00 -3°C° 0 mm 2 mps 758 mmHg 36%
    01:00 -3°C° 0 mm 2 mps 757 mmHg 37%
    02:00 -4°C° 0 mm 3 mps 757 mmHg 38%
    03:00 -4°C° 0 mm 3 mps 757 mmHg 39%
    04:00 -4°C° 0 mm 3 mps 756 mmHg 40%
    05:00 -4°C° 0 mm 3 mps 756 mmHg 39%
    06:00 -4°C° 0 mm 3 mps 756 mmHg 38%
    07:00 -4°C° 0 mm 3 mps 756 mmHg 37%
    08:00 -4°C° 0 mm 3 mps 756 mmHg 34%
    09:00 -2°C° 0 mm 3 mps 756 mmHg 31%
    10:00 -2°C° 0 mm 3 mps 756 mmHg 27%
    11:00 -1°C° 0 mm 3 mps 756 mmHg 26%
    12:00 0°C° 0 mm 3 mps 756 mmHg 24%
    13:00 0°C° 0 mm 3 mps 756 mmHg 23%
    14:00 0°C° 0 mm 3 mps 756 mmHg 25%
    15:00 -1°C° 0 mm 3 mps 756 mmHg 27%
    16:00 -1°C° 0 mm 3 mps 756 mmHg 29%
    17:00 -2°C° 0 mm 3 mps 756 mmHg 29%
    18:00 -3°C° 0 mm 2 mps 756 mmHg 30%
    19:00 -3°C° 0 mm 2 mps 757 mmHg 31%
    20:00 -3°C° 0 mm 2 mps 757 mmHg 30%
    21:00 -3°C° 0 mm 2 mps 757 mmHg 30%
    22:00 -3°C° 0 mm 2 mps 757 mmHg 30%
    23:00 -2°C° 0 mm 1 mps 757 mmHg 30%

    19 November, Monday

    Time Temperature Precipitation Wind Pressure Humidity
    00:00 -2°C° 0 mm 1 mps 757 mmHg 29%
    01:00 -3°C° 0 mm 0 mps 757 mmHg 29%
    02:00 -3°C° 0 mm 0 mps 757 mmHg 29%
    03:00 -3°C° 0 mm 0 mps 758 mmHg 28%
    04:00 -3°C° 0 mm 0 mps 758 mmHg 28%
    05:00 -3°C° 0 mm 0 mps 758 mmHg 28%
    06:00 -3°C° 0 mm 0 mps 758 mmHg 28%
    07:00 -3°C° 0 mm 0 mps 758 mmHg 29%
    08:00 -3°C° 0 mm 0 mps 759 mmHg 27%
    09:00 -2°C° 0 mm 0 mps 759 mmHg 26%
    10:00 -1°C° 0 mm 0 mps 759 mmHg 25%
    11:00 -1°C° 0 mm 0 mps 760 mmHg 24%
    12:00 +1°C° 0 mm 1 mps 760 mmHg 23%
    13:00 +2°C° 0 mm 1 mps 760 mmHg 22%
    14:00 +1°C° 0 mm 1 mps 760 mmHg 24%
    15:00 +1°C° 0 mm 1 mps 760 mmHg 26%
    16:00 -2°C° 0 mm 2 mps 761 mmHg 29%
    17:00 -2°C° 0 mm 2 mps 761 mmHg 30%
    18:00 -3°C° 0 mm 2 mps 761 mmHg 31%
    19:00 -4°C° 0 mm 2 mps 761 mmHg 32%
    20:00 -4°C° 0 mm 2 mps 761 mmHg 32%
    21:00 -4°C° 0 mm 2 mps 761 mmHg 33%
    22:00 -4°C° 0 mm 2 mps 761 mmHg 34%
    23:00 -4°C° 0 mm 2 mps 761 mmHg 36%

    20 November, Tuesday

    Time Temperature Precipitation Wind Pressure Humidity
    00:00 -5°C° 0 mm 2 mps 761 mmHg 39%
    01:00 -5°C° 0 mm 2 mps 761 mmHg 41%
    02:00 -5°C° 0 mm 2 mps 761 mmHg 47%
    03:00 -5°C° 0 mm 2 mps 761 mmHg 53%
    04:00 -5°C° 0 mm 2 mps 761 mmHg 59%
    05:00 -5°C° 0 mm 2 mps 761 mmHg 67%
    06:00 -5°C° 0 mm 2 mps 761 mmHg 75%
    07:00 -4°C° 0 mm 2 mps 761 mmHg 82%
    08:00 -4°C° 0 mm 2 mps 761 mmHg 84%
    09:00 -3°C° 0 mm 2 mps 761 mmHg 86%
    10:00 -4°C° 0 mm 3 mps 762 mmHg 87%
    11:00 -2°C° 0 mm 3 mps 762 mmHg 85%
    12:00 -1°C° 0 mm 3 mps 762 mmHg 83%
    13:00 -1°C° 0 mm 3 mps 762 mmHg 81%
    14:00 -1°C° 0 mm 2 mps 762 mmHg 83%
    15:00 -1°C° 0 mm 2 mps 762 mmHg 86%
    16:00 -1°C° 0 mm 2 mps 762 mmHg 88%
    17:00 -2°C° 0 mm 2 mps 762 mmHg 90%
    18:00 -2°C° 0 mm 2 mps 762 mmHg 91%
    19:00 -2°C° 0 mm 2 mps 762 mmHg 92%
    20:00 -2°C° 0 mm 2 mps 762 mmHg 91%
    21:00 -2°C° 0 mm 2 mps 761 mmHg 91%
    22:00 0°C° 0 mm 1 mps 761 mmHg 91%
    23:00 0°C° 0 mm 1 mps 761 mmHg 90%

    21 November, Wednesday

    Time Temperature Precipitation Wind Pressure Humidity
    00:00 0°C° 0 mm 1 mps 761 mmHg 89%
    01:00 -1°C° 0 mm 1 mps 761 mmHg 88%
    02:00 -1°C° 0 mm 1 mps 761 mmHg 87%
    03:00 -1°C° 0 mm 1 mps 761 mmHg 87%
    04:00 -1°C° 0 mm 1 mps 761 mmHg 87%
    05:00 -1°C° 0 mm 1 mps 761 mmHg 87%
    06:00 -1°C° 0 mm 1 mps 760 mmHg 87%
    07:00 -1°C° 0 mm 1 mps 760 mmHg 88%
    08:00 -1°C° 0 mm 1 mps 760 mmHg 87%
    09:00 0°C° 0 mm 1 mps 760 mmHg 86%
    10:00 0°C° 0 mm 1 mps 760 mmHg 85%
    11:00 0°C° 0 mm 1 mps 760 mmHg 82%
    12:00 -2°C° 0 mm 2 mps 760 mmHg 79%
    13:00 -2°C° 0 mm 2 mps 759 mmHg 76%
    14:00 -2°C° 0 mm 2 mps 759 mmHg 76%
    15:00 -2°C° 0 mm 2 mps 759 mmHg 76%
    16:00 -2°C° 0 mm 2 mps 758 mmHg 76%
    17:00 -3°C° 0 mm 2 mps 758 mmHg 77%
    18:00 -3°C° 0 mm 2 mps 758 mmHg 79%
    19:00 -3°C° 0 mm 2 mps 758 mmHg 80%
    20:00 -4°C° 0 mm 2 mps 757 mmHg 81%
    21:00 -4°C° 0 mm 2 mps 757 mmHg 81%
    22:00 -4°C° 0 mm 2 mps 757 mmHg 82%
    23:00 -4°C° 0 mm 2 mps 757 mmHg 84%
    Show more